Snowfall_Accumulation
0.0 0.0 0.0 0.0 0.0 0.0 0.0 0.0 0.0 0.0 0.0 0.0 0.0 0.0 0.0 0.0 0.0 0.0 0.0 0.0 0.0 0.0 0.0 0.0 0.0 0.0 0.0 0.0 0.0 0.0 0.0 0.0 0.0 0.0 0.0 0.0 0.0 0.0 0.0 0.0 0.0 0.0 0.0 0.0
0.0 0.0 0.0 0.0 0.0 0.0 0.0 0.0 0.0 0.0 0.0 0.0 0.0 0.0 0.0 0.0 0.0 0.0 0.0 0.0 0.0 0.0 0.0 0.0 0.0 0.0 0.0 0.0 0.0 0.0 0.0 0.0 0.0 0.0 0.0 0.0 0.0 0.0 0.0 0.0 0.0 0.0 0.0 0.0
0.0 0.0 0.0 0.0 0.0 0.0 0.0 0.0 0.0 0.0 0.0 0.0 0.0 0.0 0.0 0.0 0.0 0.0 0.0 0.0 0.0 0.0 0.0 0.0 0.0 0.0 0.0 0.0 0.0 0.0 0.0 0.0 0.0 0.0 0.0 0.0 0.0 0.0 0.0 0.0 0.0 0.0 0.0 0.0
0.0 0.0 0.0 0.0 0.0 0.0 0.0 0.0 0.0 0.0 0.0 0.0 0.0 0.1 0.0 0.0 0.0 0.0 0.0 0.0 0.0 0.0 0.0 0.0 0.0 0.0 0.0 0.0 0.0 0.0 0.0 0.0 0.0 0.0 0.0 0.0 0.0 0.0 0.0 0.0 0.0 0.0 0.0 0.0
0.0 0.0 0.0 0.0 0.0 0.0 0.0 0.0 0.0 0.0 0.0 0.0 0.0 0.0 0.0 0.0 0.0 0.0 0.0 0.0 0.0 0.0 0.0 0.0 0.0 0.0 0.0 0.0 0.0 0.0 0.0 0.0 0.0 0.0 0.0 0.0 0.0 0.0 0.0 0.0 0.0 0.0 0.0 0.0
0.0 0.0 0.0 0.0 0.0 0.0 0.0 0.0 0.0 0.0 0.0 0.4 0.0 0.0 0.0 0.0 0.0 0.0 0.0 0.0 0.0 0.0 0.0 0.0 0.0 0.0 0.0 0.0 0.0 0.0 0.0 0.0 0.0 0.0 0.0 0.0 0.0 0.0 0.0 0.0 0.0 0.0 0.0 0.0
0.0 0.0 0.0 0.0 0.0 0.0 0.0 0.0 0.8 1.5 3.5 1.9 0.0 0.2 0.0 0.0 0.0 0.0 0.0 0.0 0.0 0.0 0.0 0.0 0.0 0.0 0.0 0.0 0.0 0.0 0.0 0.0 0.0 0.0 0.0 0.0 0.0 0.0 0.0 0.0 0.0 0.0 0.0 0.0
0.0 0.0 0.0 0.0 0.0 0.0 0.0 0.0 1.5 4.6 3.6 1.6 0.5 0.7 0.0 0.0 0.0 0.0 0.0 0.0 0.0 0.0 0.0 0.0 0.0 0.0 0.0 0.0 0.0 0.0 0.0 0.0 0.0 0.0 0.0 0.0 0.0 0.0 0.0 0.0 0.0 0.0 0.0 0.0
0.0 0.0 0.0 0.0 0.0 0.0 0.0 0.0 0.0 1.1 5.8 4.8 0.2 0.0 0.0 0.0 0.0 0.0 0.0 0.0 0.0 0.0 0.0 0.0 0.0 0.0 0.0 0.0 0.0 0.0 0.0 0.0 0.0 0.0 0.0 0.0 0.0 0.0 0.0 0.0 0.0 0.0 0.0 0.0
0.0 0.1 0.0 0.0 0.0 0.0 0.0 0.0 0.7 0.8 6.3 4.9 0.0 0.0 0.0 0.0 0.0 0.0 0.0 0.0 0.0 0.0 0.0 0.0 0.0 0.0 0.0 0.0 0.0 0.0 0.0 0.0 0.0 0.0 0.0 0.0 0.0 0.0 0.0 0.0 0.0 0.0 0.0 0.0
0.0 0.0 0.0 0.0 0.0 0.0 0.0 0.0 0.0 0.0 0.9 4.1 3.4 0.6 0.0 0.0 0.0 0.0 0.0 0.0 0.0 0.0 0.0 0.0 0.0 0.0 0.0 0.0 0.0 0.0 0.0 0.0 0.0 0.0 0.0 0.0 0.0 0.0 0.0 0.0 0.0 0.0 0.0 0.0
0.0 0.0 1.1 0.0 0.0 0.0 0.0 0.0 0.0 1.7 1.2 1.1 2.9 2.2 0.0 0.0 0.0 0.0 0.0 0.0 0.0 0.0 0.0 0.0 0.0 0.0 0.0 0.0 0.0 0.0 0.0 0.0 0.0 0.0 0.0 0.0 0.0 0.0 0.0 0.0 0.0 0.0 0.0 0.1
0.0 0.5 2.5 1.2 0.1 0.0 0.0 0.0 0.0 0.0 0.6 2.4 6.2 1.8 0.0 0.0 0.0 0.0 0.0 0.0 0.0 0.0 0.0 0.0 0.0 0.0 0.0 0.0 0.0 0.0 0.0 0.0 0.0 0.0 0.0 0.0 0.0 0.0 0.0 0.0 0.1 0.1 0.1 0.1
nan 0.0 0.1 0.7 0.1 0.0 0.2 0.0 0.0 0.0 2.8 1.9 1.2 0.4 0.0 0.0 0.0 0.0 0.0 0.0 0.0 0.0 0.0 0.0 0.0 0.0 0.0 0.0 0.0 0.0 0.0 0.0 0.0 0.0 0.0 0.0 0.0 0.0 0.0 0.1 0.2 0.2 0.2 0.2
0.0 0.4 0.0 0.1 0.0 0.0 0.0 0.1 0.0 0.1 0.1 0.5 0.2 0.2 0.0 0.0 0.0 0.0 0.0 0.0 0.0 0.0 0.0 0.0 0.0 0.0 0.0 0.0 0.0 0.0 0.0 0.0 0.0 0.0 0.0 0.0 0.0 0.1 0.2 0.2 0.2 0.2 0.2 0.1
0.0 1.1 0.2 0.9 0.0 0.0 0.1 0.0 0.0 0.0 0.0 0.1 0.3 0.4 0.0 0.0 0.0 0.0 0.0 0.0 0.0 0.0 0.0 0.0 0.0 0.0 0.0 0.0 0.0 0.0 0.0 0.0 0.1 0.1 0.1 0.2 0.2 0.4 0.3 0.4 0.6 0.3 0.3 0.3
0.2 1.2 5.0 6.6 0.1 0.1 3.7 0.1 0.0 0.0 0.0 0.0 0.4 0.1 0.0 0.0 0.1 0.0 0.1 0.0 0.1 0.0 0.0 0.0 0.0 0.0 0.0 0.0 0.0 0.0 0.0 0.1 0.2 0.3 0.6 0.6 0.4 0.6 0.4 0.4 0.5 0.5 0.5 0.6
0.1 2.6 4.5 10.4 7.1 17.0 0.5 0.0 0.0 0.0 0.0 0.0 0.0 0.0 0.0 0.1 0.0 0.0 0.0 0.0 0.0 0.0 0.0 0.0 0.0 0.0 0.0 0.0 0.0 0.1 0.2 0.3 0.5 0.9 1.2 0.5 0.8 1.0 0.3 0.4 0.4 0.4 0.3 0.4
0.0 0.5 5.0 15.4 10.9 0.6 0.0 0.0 0.0 0.0 0.1 0.0 0.0 0.0 0.0 0.0 0.0 0.0 0.0 0.0 0.0 0.0 0.0 0.0 0.0 0.0 0.0 0.0 0.1 0.3 0.4 0.4 0.6 0.5 0.5 0.3 1.1 2.0 0.5 2.3 0.4 0.3 1.4 1.1
0.0 0.1 1.2 10.6 16.5 14.7 0.1 0.0 0.0 0.0 0.5 0.0 0.0 0.0 0.0 0.1 2.3 0.2 0.0 0.0 0.0 0.0 0.0 0.0 0.0 0.1 0.2 0.2 0.3 0.4 0.3 0.4 0.4 0.3 0.4 0.3 1.1 2.4 2.0 1.2 1.8 2.0 2.1 2.0
2.8 4.9 5.6 7.0 11.7 2.7 0.0 0.0 0.0 4.0 0.2 0.0 0.0 0.0 0.1 0.9 0.1 0.0 0.0 0.0 0.0 0.0 0.0 0.0 0.2 0.2 0.3 0.6 0.7 0.5 0.3 0.4 0.4 0.4 0.3 0.5 0.8 2.4 1.6 1.9 1.8 2.4 2.8 1.6
1.3 5.8 14.6 9.6 10.2 13.2 0.0 0.0 0.1 0.0 0.0 0.0 0.0 0.0 0.3 0.1 0.0 0.0 0.0 0.0 0.0 0.0 0.0 0.1 0.5 0.3 0.5 0.9 1.5 0.6 0.5 0.4 0.7 0.9 0.8 1.6 2.7 2.2 2.5 4.6 3.1 4.0 3.7 3.9
2.5 0.2 2.4 0.3 1.6 0.0 0.0 0.0 0.0 0.0 0.1 0.3 0.3 0.2 0.1 0.3 0.1 0.0 0.0 0.0 0.0 0.0 0.3 0.4 0.6 0.5 0.4 0.7 1.8 2.7 0.3 0.5 0.9 3.0 3.9 4.1 3.6 3.5 3.6 5.3 3.4 5.2 4.6 5.4
0.0 0.0 0.4 0.3 0.1 0.0 0.0 0.0 0.0 0.1 0.1 0.1 0.2 0.1 0.5 0.8 0.5 1.2 0.9 0.6 0.3 0.4 0.6 0.9 1.3 1.4 1.0 1.1 1.3 1.6 1.2 1.2 6.1 5.8 3.1 2.4 3.0 2.3 2.9 3.7 4.8 6.9 5.6 4.3
0.1 0.0 0.1 0.9 0.1 0.1 0.0 0.0 0.0 0.1 0.2 0.3 0.3 0.4 0.3 0.4 2.9 1.8 2.1 1.3 0.8 0.8 1.0 1.1 1.7 1.5 1.6 1.4 1.3 1.8 1.9 2.5 3.6 3.6 1.8 3.0 4.2 4.6 2.6 1.9 2.5 2.2 1.4 3.2
0.0 0.0 0.2 2.2 0.1 0.2 0.5 0.1 0.2 0.3 0.1 0.1 0.8 1.6 0.8 1.1 2.1 2.3 2.0 1.1 1.4 1.9 1.7 1.6 1.2 1.5 1.5 1.9 2.1 2.9 4.0 4.1 4.0 2.2 3.4 3.3 3.1 2.7 2.3 2.1 1.9 nan nan nan
Water_Equivalent
0.00 0.00 0.00 0.00 0.00 0.00 0.00 0.00 0.00 0.00 0.00 0.00 0.00 0.00 0.00 0.00 0.00 0.00 0.00 0.00 0.00 0.00 0.00 0.00 0.00 0.00 0.00 0.00 0.00 0.00 0.00 0.00 0.00 0.00 0.00 0.00 0.00 0.00 0.00 0.00 0.00 0.00 0.00 0.00
0.00 0.00 0.00 0.00 0.00 0.00 0.00 0.00 0.00 0.00 0.00 0.00 0.00 0.00 0.00 0.00 0.00 0.00 0.00 0.00 0.00 0.00 0.00 0.00 0.00 0.00 0.00 0.00 0.00 0.00 0.00 0.00 0.00 0.00 0.00 0.00 0.00 0.00 0.00 0.00 0.00 0.00 0.00 0.00
0.00 0.00 0.00 0.00 0.00 0.00 0.00 0.00 0.00 0.00 0.00 0.00 0.00 0.00 0.00 0.00 0.00 0.00 0.00 0.00 0.00 0.00 0.00 0.00 0.00 0.00 0.00 0.00 0.00 0.00 0.00 0.00 0.00 0.00 0.00 0.00 0.00 0.00 0.00 0.00 0.00 0.00 0.00 0.00
0.00 0.00 0.00 0.00 0.00 0.00 0.00 0.00 0.00 0.00 0.00 0.00 0.00 0.01 0.00 0.00 0.00 0.00 0.00 0.00 0.00 0.00 0.00 0.00 0.00 0.00 0.00 0.00 0.00 0.00 0.00 0.00 0.00 0.00 0.00 0.00 0.00 0.00 0.00 0.00 0.00 0.00 0.00 0.00
0.00 0.00 0.00 0.00 0.00 0.00 0.00 0.00 0.00 0.00 0.00 0.00 0.00 0.00 0.00 0.00 0.00 0.00 0.00 0.00 0.00 0.00 0.00 0.00 0.00 0.00 0.00 0.00 0.00 0.00 0.00 0.00 0.00 0.00 0.00 0.00 0.00 0.00 0.00 0.00 0.00 0.00 0.00 0.00
0.00 0.00 0.00 0.00 0.00 0.00 0.00 0.00 0.00 0.00 0.00 0.06 0.00 0.00 0.00 0.00 0.00 0.00 0.00 0.00 0.00 0.00 0.00 0.00 0.00 0.00 0.00 0.00 0.00 0.00 0.00 0.00 0.00 0.00 0.00 0.00 0.00 0.00 0.00 0.00 0.00 0.00 0.00 0.00
0.00 0.00 0.00 0.00 0.00 0.00 0.00 0.00 0.11 0.20 0.45 0.26 0.00 0.03 0.00 0.00 0.00 0.00 0.00 0.00 0.00 0.00 0.00 0.00 0.00 0.00 0.00 0.00 0.00 0.00 0.00 0.00 0.00 0.00 0.00 0.00 0.00 0.00 0.00 0.00 0.00 0.00 0.00 0.00
0.00 0.00 0.00 0.00 0.00 0.00 0.00 0.00 0.23 0.51 0.45 0.23 0.07 0.10 0.01 0.00 0.00 0.00 0.00 0.00 0.00 0.00 0.00 0.00 0.00 0.00 0.00 0.00 0.00 0.00 0.00 0.00 0.00 0.00 0.00 0.00 0.00 0.00 0.00 0.00 0.00 0.00 0.00 0.00
0.00 0.00 0.00 0.00 0.00 0.00 0.00 0.00 0.00 0.15 0.63 0.61 0.03 0.00 0.00 0.00 0.00 0.00 0.00 0.00 0.00 0.00 0.00 0.00 0.00 0.00 0.00 0.00 0.00 0.00 0.00 0.00 0.00 0.00 0.00 0.00 0.00 0.00 0.00 0.00 0.00 0.00 0.00 0.00
0.00 0.03 0.00 0.00 0.00 0.00 0.00 0.00 0.11 0.13 0.74 0.56 0.01 0.01 0.00 0.00 0.00 0.00 0.00 0.00 0.00 0.00 0.00 0.00 0.00 0.00 0.00 0.00 0.00 0.00 0.00 0.00 0.00 0.00 0.00 0.00 0.00 0.00 0.00 0.00 0.00 0.00 0.00 0.00
0.00 0.01 0.02 0.00 0.00 0.00 0.00 0.00 0.00 0.00 0.13 0.52 0.42 0.07 0.00 0.00 0.00 0.00 0.00 0.00 0.00 0.00 0.00 0.00 0.00 0.00 0.00 0.00 0.00 0.00 0.00 0.00 0.00 0.00 0.00 0.00 0.00 0.00 0.00 0.00 0.00 0.00 0.00 0.00
0.00 0.00 0.17 0.00 0.00 0.00 0.00 0.00 0.00 0.24 0.16 0.16 0.40 0.26 0.00 0.00 0.00 0.00 0.00 0.00 0.00 0.00 0.00 0.00 0.00 0.00 0.00 0.00 0.00 0.00 0.00 0.00 0.00 0.00 0.00 0.00 0.00 0.00 0.00 0.00 0.00 0.00 0.00 0.01
0.00 0.10 0.56 0.33 0.02 0.00 0.00 0.00 0.00 0.00 0.09 0.36 0.81 0.26 0.00 0.00 0.00 0.00 0.00 0.00 0.00 0.00 0.00 0.00 0.00 0.00 0.00 0.00 0.00 0.00 0.00 0.00 0.00 0.00 0.00 0.00 0.00 0.00 0.00 0.00 0.01 0.03 0.03 0.03
nan 0.00 0.03 0.15 0.01 0.00 0.04 0.00 0.00 0.01 0.46 0.38 0.22 0.09 0.00 0.00 0.00 0.00 0.00 0.00 0.00 0.00 0.00 0.00 0.00 0.00 0.00 0.00 0.00 0.00 0.00 0.00 0.00 0.00 0.00 0.00 0.00 0.00 0.00 0.02 0.03 0.04 0.04 0.03
0.00 0.07 0.01 0.02 0.00 0.00 0.00 0.01 0.00 0.02 0.01 0.07 0.03 0.02 0.00 0.00 0.00 0.00 0.00 0.00 0.00 0.00 0.00 0.00 0.00 0.00 0.00 0.00 0.00 0.00 0.00 0.00 0.00 0.00 0.00 0.00 0.01 0.02 0.03 0.04 0.05 0.04 0.04 0.03
0.00 0.25 0.05 0.23 0.01 0.00 0.01 0.00 0.00 0.00 0.00 0.02 0.07 0.11 0.00 0.00 0.00 0.00 0.00 0.00 0.01 0.01 0.00 0.00 0.00 0.00 0.00 0.00 0.00 0.00 0.00 0.00 0.01 0.01 0.02 0.03 0.04 0.07 0.07 0.07 0.11 0.06 0.06 0.06
0.05 0.37 0.77 1.02 0.02 0.02 0.47 0.03 0.00 0.00 0.00 0.00 0.13 0.05 0.00 0.00 0.01 0.01 0.02 0.01 0.02 0.00 0.00 0.00 0.00 0.00 0.00 0.00 0.00 0.00 0.00 0.01 0.04 0.05 0.11 0.12 0.09 0.12 0.08 0.07 0.10 0.09 0.09 0.11
0.02 0.41 0.72 1.55 0.98 1.91 0.13 0.00 0.00 0.00 0.00 0.00 0.00 0.00 0.00 0.01 0.00 0.00 0.00 0.00 0.00 0.00 0.00 0.00 0.00 0.00 0.00 0.00 0.00 0.01 0.03 0.05 0.08 0.16 0.23 0.10 0.14 0.17 0.06 0.07 0.08 0.07 0.05 0.08
0.00 0.08 0.77 1.86 1.37 0.15 0.01 0.00 0.00 0.01 0.01 0.00 0.00 0.00 0.00 0.00 0.00 0.00 0.00 0.00 0.00 0.00 0.00 0.00 0.00 0.00 0.00 0.01 0.02 0.04 0.07 0.07 0.09 0.08 0.09 0.07 0.20 0.32 0.09 0.37 0.07 0.05 0.25 0.21
0.00 0.01 0.19 1.41 1.87 1.59 0.01 0.00 0.00 0.00 0.07 0.00 0.00 0.00 0.00 0.02 0.18 0.02 0.00 0.00 0.00 0.00 0.00 0.00 0.00 0.02 0.03 0.02 0.04 0.06 0.04 0.05 0.06 0.06 0.07 0.06 0.19 0.40 0.32 0.21 0.30 0.37 0.38 0.37
0.36 0.65 0.79 0.97 1.46 0.46 0.00 0.00 0.00 0.45 0.03 0.00 0.00 0.00 0.01 0.08 0.01 0.00 0.00 0.00 0.00 0.00 0.00 0.00 0.02 0.03 0.03 0.06 0.08 0.06 0.04 0.05 0.04 0.05 0.05 0.09 0.14 0.41 0.27 0.32 0.31 0.39 0.45 0.26
0.15 0.64 1.59 1.09 1.20 1.52 0.00 0.00 0.01 0.00 0.00 0.00 0.00 0.00 0.03 0.01 0.00 0.00 0.00 0.00 0.00 0.00 0.00 0.01 0.05 0.04 0.06 0.10 0.15 0.08 0.07 0.04 0.07 0.10 0.12 0.27 0.45 0.41 0.43 0.78 0.50 0.66 0.59 0.59
0.33 0.03 0.33 0.06 0.31 0.00 0.00 0.00 0.00 0.00 0.02 0.04 0.04 0.02 0.01 0.02 0.01 0.00 0.00 0.00 0.00 0.00 0.04 0.06 0.07 0.07 0.05 0.08 0.18 0.25 0.04 0.06 0.13 0.50 0.71 0.69 0.61 0.60 0.59 0.89 0.54 0.82 0.73 0.84
0.02 0.00 0.10 0.08 0.03 0.01 0.00 0.00 0.00 0.02 0.02 0.01 0.03 0.01 0.06 0.05 0.04 0.16 0.12 0.06 0.04 0.05 0.07 0.10 0.15 0.17 0.11 0.12 0.14 0.15 0.12 0.16 1.11 1.01 0.49 0.38 0.49 0.38 0.47 0.67 0.81 1.16 0.88 0.67
0.02 0.01 0.05 0.19 0.03 0.02 0.01 0.00 0.00 0.01 0.03 0.05 0.04 0.05 0.02 0.03 0.29 0.20 0.20 0.14 0.08 0.08 0.10 0.13 0.18 0.14 0.15 0.13 0.12 0.17 0.19 0.35 0.59 0.63 0.27 0.46 0.71 0.78 0.43 0.33 0.44 0.38 0.24 0.54
0.00 0.00 0.04 0.27 0.01 0.03 0.07 0.01 0.03 0.05 0.01 0.01 0.08 0.14 0.09 0.15 0.17 0.17 0.17 0.10 0.12 0.16 0.16 0.16 0.13 0.13 0.11 0.15 0.18 0.26 0.50 0.52 0.54 0.32 0.52 0.52 0.51 0.46 0.40 0.37 0.32 nan nan nan
SL_Ratio
nan nan nan nan nan nan nan nan nan nan nan nan nan nan nan nan nan nan nan nan nan nan nan nan nan nan nan nan nan nan nan nan nan nan nan nan nan nan nan nan nan nan nan nan
nan nan nan nan nan nan nan nan nan nan nan nan nan nan nan nan nan nan nan nan nan nan nan nan nan nan nan nan nan nan nan nan nan nan nan nan nan nan nan nan nan nan nan nan
nan nan nan nan nan nan nan nan nan nan nan nan nan nan nan nan nan nan nan nan nan nan nan nan nan nan nan nan nan nan nan nan nan nan nan nan nan nan nan nan nan nan nan nan
nan nan nan nan nan nan nan nan nan nan nan nan nan 7.1 nan nan nan nan nan nan nan nan nan nan nan nan nan nan nan nan nan nan nan nan nan nan nan nan nan nan nan nan nan nan
nan nan nan nan nan nan nan nan nan nan nan nan nan nan nan nan nan nan nan nan nan nan nan nan nan nan nan nan nan nan nan nan nan nan nan nan nan nan nan nan nan nan nan nan
nan nan nan nan nan nan nan nan nan nan nan 7.2 nan nan nan nan nan nan nan nan nan nan nan nan nan nan nan nan nan nan nan nan nan nan nan nan nan nan nan nan nan nan nan nan
nan nan nan nan nan nan nan nan 6.9 7.3 7.8 7.2 nan 6.9 nan nan nan nan nan nan nan nan nan nan nan nan nan nan nan nan nan nan nan nan nan nan nan nan nan nan nan nan nan nan
nan 5.3 nan nan nan nan nan nan 6.8 9.0 7.9 7.1 6.9 7.5 5.2 nan nan nan nan nan nan nan nan nan nan nan nan nan nan nan nan nan nan nan nan nan nan nan nan nan nan nan nan nan
6.3 6.3 nan nan nan nan nan 6.7 nan 7.4 9.2 7.8 6.1 nan nan nan nan nan nan nan nan nan nan nan nan nan nan nan nan nan nan nan nan nan nan nan nan nan nan nan nan nan nan nan
nan 5.3 nan nan nan nan nan nan 6.8 6.6 8.5 8.8 6.5 6.0 nan nan nan nan nan nan nan nan nan nan nan nan nan nan nan nan nan nan nan nan nan nan nan nan nan nan nan nan nan nan
nan 6.2 2.6 nan 2.5 nan nan nan nan 6.4 6.7 7.9 8.2 8.1 5.0 nan nan nan nan nan nan nan nan nan nan nan nan nan nan nan nan nan nan nan nan nan nan nan nan nan nan nan nan nan
nan nan 6.4 nan nan nan nan nan nan 7.0 7.4 7.2 7.3 8.2 nan 5.0 nan nan nan nan nan nan nan nan nan nan nan nan nan nan nan nan nan nan nan nan nan nan nan nan nan nan 4.6 4.7
nan 4.8 4.6 3.6 3.5 nan nan nan nan nan 6.4 6.8 7.7 6.9 nan nan nan nan nan nan nan nan nan nan nan nan nan nan nan nan nan nan nan nan nan nan nan nan nan nan 4.6 4.7 4.7 4.8
nan nan 3.2 4.8 4.3 nan 6.0 5.0 0.0 2.8 6.1 5.1 5.4 4.4 2.5 nan nan nan nan nan nan nan nan nan nan nan nan nan nan nan nan nan nan nan nan nan nan nan 4.5 4.7 4.8 4.9 4.9 5.0
nan 5.7 3.4 2.9 5.0 nan 5.6 6.8 4.2 3.4 3.5 6.8 4.8 6.7 5.0 nan nan nan nan nan nan 3.8 nan nan nan nan nan nan nan nan nan nan nan nan nan nan 4.6 4.7 4.7 4.9 5.0 5.0 5.0 4.9
5.0 4.3 3.4 3.6 3.3 5.0 4.9 5.0 5.0 6.7 3.6 3.5 4.2 4.0 nan nan nan 5.0 nan nan 4.2 3.1 nan nan nan nan nan nan nan nan nan nan 4.7 4.8 4.7 4.7 4.6 4.9 4.9 5.0 5.2 5.2 5.3 5.3
3.3 3.3 6.5 6.5 3.0 3.8 7.9 3.9 nan 6.4 nan 2.5 3.0 2.7 nan 6.0 5.5 5.0 5.2 2.9 3.1 5.0 nan nan nan nan nan nan nan 10.0 10.0 5.0 5.2 5.4 5.0 4.9 5.0 5.2 5.2 5.2 5.3 5.5 5.4 5.4
6.2 6.3 6.2 6.7 7.2 8.9 3.7 nan nan nan nan nan nan nan 5.0 4.9 4.5 3.8 nan nan nan 6.3 6.7 5.0 nan 20.0 nan 10.0 7.5 5.5 5.4 5.6 5.9 5.5 5.2 5.2 5.6 5.8 5.2 5.4 5.5 5.5 5.3 5.4
6.8 5.7 6.5 8.3 7.9 4.0 2.9 nan nan 6.9 6.6 nan nan 5.0 4.2 5.0 7.3 nan nan nan nan nan nan nan nan nan 15.0 6.8 5.8 6.9 6.4 6.3 6.1 5.5 5.4 5.2 5.8 6.3 5.6 6.4 5.6 5.4 5.5 5.4
7.5 7.7 6.5 7.5 8.8 9.3 4.8 nan nan nan 7.0 nan nan nan 8.2 8.4 13.3 10.9 nan nan nan nan nan nan 12.5 5.9 6.9 7.1 7.2 6.7 7.5 7.2 6.4 6.0 5.7 5.5 5.7 6.1 6.4 5.7 6.1 5.5 5.4 5.6
7.7 7.6 7.1 7.3 8.0 5.9 nan nan nan 8.8 4.7 nan nan nan 7.9 11.5 10.1 10.7 nan nan nan nan 5.0 10.0 6.2 8.2 9.2 9.4 8.3 7.8 7.1 8.9 9.4 8.7 7.0 5.9 5.6 5.8 5.9 6.0 5.7 6.1 6.1 6.1
8.5 9.2 9.1 8.8 8.5 8.7 nan nan 9.4 6.9 nan 6.1 7.5 6.7 10.8 10.4 9.0 nan nan nan nan 25.0 20.0 7.4 8.7 7.9 8.9 8.5 10.1 7.8 6.9 9.0 10.0 9.1 7.1 5.9 6.0 5.5 5.8 5.9 6.2 6.1 6.4 6.5
7.7 7.4 7.3 5.5 5.1 2.5 nan nan nan nan 6.2 6.6 7.3 10.6 11.3 11.3 11.0 17.5 17.5 nan 14.0 11.7 6.7 7.1 8.5 8.0 7.2 8.3 9.9 10.6 7.5 8.3 7.0 6.0 5.5 6.0 6.0 5.9 6.0 6.0 6.3 6.3 6.3 6.4
3.0 nan 3.4 4.4 5.0 3.8 nan nan nan 5.4 6.0 7.3 6.6 9.7 8.5 15.8 13.4 7.6 7.3 8.6 8.1 7.4 8.6 8.9 8.7 8.2 9.2 8.7 9.1 11.1 10.0 7.6 5.5 5.7 6.3 6.3 6.2 6.1 6.2 5.6 5.9 6.0 6.3 6.4
2.6 3.8 2.9 4.5 2.8 2.6 2.9 5.0 nan 6.3 6.6 6.9 6.9 7.7 16.7 13.6 10.1 8.9 10.7 9.4 10.5 9.8 9.2 9.0 9.8 10.7 10.7 11.3 10.8 10.5 10.3 7.3 6.0 5.7 6.4 6.5 5.9 5.8 6.0 5.7 5.7 5.8 5.8 5.9
5.0 4.2 4.9 8.1 6.1 6.5 7.1 5.8 6.7 7.3 7.3 7.3 10.0 11.3 9.2 7.8 12.3 13.6 11.9 11.4 11.3 12.1 11.1 10.5 9.6 11.2 13.4 12.3 11.4 11.3 8.1 7.8 7.4 7.0 6.6 6.4 6.2 5.8 5.8 5.7 6.1 nan nan nan